Location: Alma
(34.4195°N, 97.6123°W)
Time: 07:02:34
(UTC+00:00)

Hubble Space Telescope - Pass Details

Date: 28 May 2024
Orbit: 511 x 514 km, 28.5° (Epoch: 13 June)

Event Time Altitude Azimuth Distance (km) Brightness Sun altitude
Rises 03:21:24 0° 250° (WSW) 2,609 4.6 -18.7°
Reaches altitude 10° 03:23:47 10° 240° (WSW) 1,723 3.5 -19.0°
Enters shadow 03:26:33 30° 201° (SSW) 934 1.7 -19.4°
